Regional Weather Roundup
Issued by NWS

Home | Current Version | Previous Version | Text Only | Print | Product List | Glossary Off
Versions: 1 2 3 4 5 6 7 8 9 10 11 12 13 14 15 16 17 18 19 20 21 22 23 24 25 26 27 28 29 30 31 32 33 34 35 36 37 38 39 40 41 42 43 44 45 46 47 48 49 50

021
ASUS43 KFSD 161510
RWRSD

WEATHER ROUNDUP FOR SOUTH DAKOTA
NATIONAL WEATHER SERVICE SIOUX FALLS SD
1000 AM CDT WED AUG 16 2017

NOTE: "FAIR" INDICATES FEW OR NO CLOUDS BELOW 12,000 FEET WITH NO
SIGNIFICANT WEATHER AND/OR OBSTRUCTIONS TO VISIBILITY.


SDZ001>005-009-010-012>017-161600-
NORTHWEST AND NORTH CENTRAL SOUTH DAKOTA

CITY           SKY/WX    TMP DP  RH WIND       PRES   REMARKS
BUFFALO          N/A     67  59  75 N5        29.94S
FAITH            N/A     62  60  93 NW10      29.96R
MOBRIDGE       CLOUDY    65  60  84 N12       29.88S
$$

SDZ012>016-024>037-041>051-057-063-072>074-161600-
SOUTHWEST AND SOUTH CENTRAL SOUTH DAKOTA

CITY           SKY/WX    TMP DP  RH WIND       PRES   REMARKS
RAPID CTY ARPT CLOUDY    64  55  72 N17       30.01R
PIERRE         LGT RAIN  64  61  90 N16       29.86F
CUSTER         CLOUDY    61  43  51 N9        30.08S
ELLSWORTH AFB  CLOUDY    64  55  72 N14       30.00R
PHILIP         CLOUDY    66  60  81 N14       29.94S
PINE RIDGE     CLOUDY    63  60  90 N9        29.99R
SPEARFISH      FAIR      64  50  59 W8        30.05S
WINNER         CLOUDY    69  66  90 N9        29.87R
$$

SDZ004>011-016>023-039-040-161600-
NORTHEAST SOUTH DAKOTA

CITY           SKY/WX    TMP DP  RH WIND       PRES   REMARKS
ABERDEEN       CLOUDY    67  66  97 NW8       29.84R
WATERTOWN      LGT RAIN  66  66 100 CALM      29.85R FOG
BROOKINGS      HVY RAIN  66  64  94 S6        29.87R
SISSETON         N/A     66  66 100 S6        29.84R
$$

SDZ017-020-022-023-036>040-048>070-161600-
SOUTHEAST SOUTH DAKOTA

CITY           SKY/WX    TMP DP  RH WIND       PRES   REMARKS
SIOUX FALLS    LGT RAIN  68  67  96 E10       29.82F
HURON          LGT RAIN  67  66  97 E5        29.84S FOG
CHAMBERLAIN    CLOUDY    69  69 100 N5        29.85R
MITCHELL       LGT RAIN  67  66  97 NE6       29.85S FOG
YANKTON        RAIN      66  64  94 NE8       29.81F FOG
$$

ABBREVIATIONS USED IN REMARKS
   TC - TEMPERATURE IN CELSIUS
  WCI - WIND CHILL INDEX
   HX - HEAT INDEX
  VSB - VISIBILITY





USA.gov is the U.S. government's official web portal to all federal, state and local government web resources and services.